Location: Audinghen
(50.8518°N, 1.6129°E)
Time: 23:31:21
(UTC+00:00)

SJ 16-02 - Pass Details

Date: 07 August 2020
Orbit: 607 x 616 km, 75.0° (Epoch: 23 September)

Event Time Altitude Azimuth Distance (km) Brightness Sun altitude
Exits shadow 01:25:19 16° 131° (SE) 1,607 3.3 -20.2°
Maximum altitude 01:27:14 21° 98° (E) 1,388 3.3 -20.1°
Drops below altitude 10° 01:30:33 10° 49° (NE) 1,981 4.9 -19.9°
Sets 01:33:12 0° 34° (NE) 2,890 6.3 -19.7°
